IN3APK-3 Weather Reports


time (UTC)temp
C
wind
direction
speed
KPH
gust
KPH
rain 1hr
cm
rain 24hr
cm
rain mn
cm
humidity
%
barometer
mb
20260507061256 9 0.0 0.0 0.00 0.00 0.00 72 1006.6
20260507060203 8 0.0 0.0 0.00 0.00 0.00 72 1006.7
20260507055110 8 0.0 0.0 0.00 0.00 0.00 73 1006.8
20260507054018 8 0.0 0.0 0.00 0.00 0.00 73 1006.7
20260507052925 8 0.0 0.0 0.00 0.00 0.00 73 1006.7
20260507051833 8 0.0 0.0 0.00 0.00 0.00 73 1006.7
20260507050741 7 0.0 0.0 0.00 0.00 0.00 73 1006.5
20260507045649 7 0.0 0.0 0.00 0.00 0.00 73 1006.4
20260507044557 7 0.0 0.0 0.00 0.00 0.00 73 1006.2
20260507043504 7 0.0 0.0 0.00 0.00 0.00 73 1006.1
20260507042412 7 0.0 0.0 0.00 0.00 0.00 73 1006.0
20260507041320 7 0.0 0.0 0.00 0.00 0.00 73 1005.9
20260507040228 7 0.0 0.0 0.00 0.00 0.00 73 1005.8
20260507035136 7 0.0 0.0 0.00 0.00 0.00 73 1005.7
20260507034044 7 0.0 0.0 0.00 0.00 0.00 73 1005.6
20260507031859 7 0.0 0.0 0.00 0.00 0.00 73 1005.6
20260507030807 7 0.0 0.0 0.00 0.00 0.00 73 1005.7
20260507025715 7 0.0 0.0 0.00 0.00 0.00 74 1005.8
20260507024623 7 0.0 0.0 0.00 0.00 0.00 73 1005.7
20260507023531 7 0.0 0.0 0.00 0.00 0.00 73 1005.7
20260507022439 7 0.0 0.0 0.00 0.00 0.00 73 1005.7
20260507021347 7 0.0 0.0 0.00 0.00 0.00 73 1005.8
20260507020254 7 0.0 0.0 0.00 0.00 0.00 73 1005.8
20260507015202 7 0.0 0.0 0.00 0.00 0.00 73 1005.6
20260507014110 7 0.0 0.0 0.00 0.00 0.00 73 1005.6
20260507013018 7 0.0 0.0 0.00 0.00 0.00 73 1005.6
20260507011926 7 0.0 0.0 0.00 0.00 0.00 73 1005.7
20260507010834 7 0.0 0.0 0.00 0.00 0.00 73 1005.7
20260507005741 7 0.0 0.0 0.00 0.00 0.00 73 1005.8
20260507004649 7 0.0 0.0 0.00 0.00 0.00 73 1005.7
20260507003557 7 0.0 0.0 0.00 0.00 0.00 73 1005.8
20260507001412 7 0.0 0.0 0.00 0.00 0.00 73 1005.7
20260507000321 7 0.0 0.0 0.00 0.00 0.00 73 1005.6
20260506235228 7 0.0 0.0 0.00 0.00 0.00 73 1005.6
20260506234135 7 0.0 0.0 0.00 0.00 0.00 73 1005.6
20260506233043 7 0.0 0.0 0.00 0.00 0.00 74 1005.6
20260506231951 7 0.0 0.0 0.00 0.00 0.00 74 1005.7
20260506230859 7 0.0 0.0 0.00 0.00 0.00 74 1005.7
20260506225807 7 0.0 0.0 0.00 0.00 0.00 74 1005.6
20260506224714 6 0.0 0.0 0.00 0.00 0.00 74 1005.7
20260506223622 6 0.0 0.0 0.00 0.00 0.00 74 1005.7
20260506222530 7 0.0 0.0 0.00 0.00 0.00 74 1005.9
20260506221438 7 0.0 0.0 0.00 0.00 0.00 74 1005.7
20260506215254 8 0.0 0.0 0.00 0.00 0.00 73 1005.6
20260506214203 8 0.0 0.0 0.00 0.00 0.00 72 1005.5
20260506213110 8 0.0 0.0 0.00 0.00 0.00 72 1005.7
20260506212019 8 0.0 0.0 0.00 0.00 0.00 72 1005.6
20260506205834 8 0.0 0.0 0.00 0.00 0.00 72 1005.6
20260506204742 8 0.0 0.0 0.00 0.00 0.00 72 1005.5
20260506201505 9 0.0 0.0 0.00 0.00 0.00 73 1005.3
20260506200412 9 0.0 0.0 0.00 0.00 0.00 73 1005.2
20260506195321 9 0.0 0.0 0.00 0.00 0.00 73 1004.8
20260506194228 9 0.0 0.0 0.00 0.00 0.00 73 1004.7
20260506193136 9 0.0 0.0 0.00 0.00 0.00 73 1004.4
20260506192044 9 0.0 0.0 0.00 0.00 0.00 73 1004.2
20260506190952 9 0.0 0.0 0.00 0.00 0.00 73 1004.1
20260506185900 9 0.0 0.0 0.00 0.00 0.00 73 1004.0
20260506184808 9 0.0 0.0 0.00 0.00 0.00 73 1003.8
20260506183715 10 0.0 0.0 0.00 0.00 0.00 73 1003.8
20260506182623 10 0.0 0.0 0.00 0.00 0.00 73 1003.7
20260506181531 10 0.0 0.0 0.00 0.00 0.00 72 1003.7
20260506180439 10 0.0 0.0 0.00 0.00 0.00 72 1003.4
20260506175347 11 0.0 0.0 0.00 0.00 0.00 72 1003.5
20260506174255 11 0.0 0.0 0.00 0.00 0.00 72 1003.4
20260506173204 11 0.0 0.0 0.00 0.00 0.00 71 1003.2
20260506172112 12 0.0 0.0 0.00 0.00 0.00 71 1003.0
20260506171020 12 0.0 0.0 0.00 0.00 0.00 70 1003.1
20260506165928 12 0.0 0.0 0.00 0.00 0.00 71 1002.8
20260506163744 12 0.0 0.0 0.00 0.00 0.00 71 1003.0
20260506162652 12 0.0 0.0 0.00 0.00 0.00 71 1002.9
20260506161600 13 0.0 0.0 0.00 0.00 0.00 71 1002.8
20260506160508 13 0.0 0.0 0.00 0.00 0.00 71 1002.6
20260506155416 13 0.0 0.0 0.00 0.00 0.00 71 1002.7
20260506154325 15 0.0 0.0 0.00 0.00 0.00 68 1002.8
20260506153234 16 0.0 0.0 0.00 0.00 0.00 67 1002.8
20260506152140 15 0.0 0.0 0.00 0.00 0.00 70 1002.8
20260506151049 16 0.0 0.0 0.00 0.00 0.00 66 1002.9
20260506145956 15 0.0 0.0 0.00 0.00 0.00 71 1002.9
20260506144901 12 0.0 0.0 0.00 0.00 0.00 75 1003.1
20260506143808 10 0.0 0.0 0.00 0.00 0.00 75 1003.1
20260506142716 11 0.0 0.0 0.00 0.00 0.00 74 1003.2
20260506141624 11 0.0 0.0 0.00 0.00 0.00 74 1003.1
20260506135440 11 0.0 0.0 0.00 0.00 0.00 73 1003.4
20260506134348 11 0.0 0.0 0.00 0.00 0.00 73 1003.4
20260506133255 11 0.0 0.0 0.00 0.00 0.00 74 1003.6
20260506132203 11 0.0 0.0 0.00 0.00 0.00 73 1003.5
20260506131111 11 0.0 0.0 0.00 0.00 0.00 73 1003.1
20260506130019 10 0.0 0.0 0.00 0.00 0.00 74 1003.5
20260506124926 10 0.0 0.0 0.00 0.00 0.00 73 1003.8
20260506123834 11 0.0 0.0 0.00 0.00 0.00 72 1003.6
20260506122742 11 0.0 0.0 0.00 0.00 0.00 72 1003.6
20260506115506 12 0.0 0.0 0.00 0.00 0.00 69 1003.2
20260506114414 12 0.0 0.0 0.00 0.00 0.00 71 1003.2
20260506113321 11 0.0 0.0 0.00 0.00 0.00 71 1003.3
20260506112229 11 0.0 0.0 0.00 0.00 0.00 70 1003.4
20260506111137 11 0.0 0.0 0.00 0.00 0.00 70 1003.7
20260506104951 10 0.0 0.0 0.00 0.00 0.00 71 1004.2
20260506102807 9 0.0 0.0 0.00 0.00 0.00 71 1004.4
20260506101714 10 0.0 0.0 0.00 0.00 0.00 71 1004.3
20260506100622 10 0.0 0.0 0.00 0.00 0.00 71 1004.3
20260506095530 10 0.0 0.0 0.00 0.00 0.00 71 1004.3
20260506094439 10 0.0 0.0 0.00 0.00 0.00 70 1004.3
20260506093347 10 0.0 0.0 0.00 0.00 0.00 70 1004.2
20260506092255 10 0.0 0.0 0.00 0.00 0.00 69 1004.3
20260506091202 10 0.0 0.0 0.00 0.00 0.00 69 1004.4
20260506090110 10 0.0 0.0 0.00 0.00 0.00 69 1004.5
20260506085018 10 0.0 0.0 0.00 0.00 0.00 69 1004.3
20260506083926 10 0.0 0.0 0.00 0.00 0.00 69 1004.3
20260506082833 10 0.0 0.0 0.00 0.00 0.00 69 1004.4
20260506081741 10 0.0 0.0 0.00 0.00 0.00 69 1004.4
20260506080649 10 0.0 0.0 0.00 0.00 0.00 68 1004.5
20260506072320 11 0.0 0.0 0.00 0.00 0.00 66 1004.4
20260506071228 11 0.0 0.0 0.00 0.00 0.00 66 1004.4
20260506070136 11 0.0 0.0 0.00 0.00 0.00 66 1004.4